When you browse on this site, cookies collect data to enhance your experience and personalize the content and advertising you see.
Visit our Privacy Policy to learn more. By continuing to use the site, you agree to this use of cookies and data.
  • In Lithuania
  • List of Countries
  • For 7 days
  • Water Temperature
  • Satellite Maps
  • Weather Map
  • Weather Widgets
  • user-avatar
    Login

    Hourly Weather Darwin

    Today, 26 June, Wednesday

    Time Temperature Precipitation Wind Pressure Humidity
    00:00 +17°C° 0 mm 3 mps 762 mmHg 39%
    01:00 +17°C° 0 mm 3 mps 762 mmHg 36%
    02:00 +15°C° 0 mm 4 mps 761 mmHg 33%
    03:00 +15°C° 0 mm 4 mps 761 mmHg 29%
    04:00 +14°C° 0 mm 4 mps 761 mmHg 30%
    05:00 +13°C° 0 mm 4 mps 762 mmHg 30%
    06:00 +12°C° 0 mm 4 mps 762 mmHg 31%
    07:00 +15°C° 0 mm 5 mps 762 mmHg 29%
    08:00 +17°C° 0 mm 5 mps 762 mmHg 27%
    09:00 +21°C° 0 mm 5 mps 762 mmHg 22%
    10:00 +25°C° 0 mm 5 mps 762 mmHg 21%
    11:00 +27°C° 0 mm 4 mps 762 mmHg 19%
    12:00 +30°C° 0 mm 4 mps 761 mmHg 18%
    13:00 +31°C° 0 mm 3 mps 760 mmHg 18%
    14:00 +33°C° 0 mm 3 mps 760 mmHg 18%
    15:00 +34°C° 0 mm 2 mps 759 mmHg 17%
    16:00 +30°C° 0 mm 2 mps 759 mmHg 25%
    17:00 +26°C° 0 mm 2 mps 759 mmHg 34%
    18:00 +23°C° 0 mm 2 mps 759 mmHg 42%
    19:00 +21°C° 0 mm 2 mps 759 mmHg 46%
    20:00 +21°C° 0 mm 1 mps 760 mmHg 50%
    21:00 +20°C° 0 mm 1 mps 761 mmHg 55%
    22:00 +19°C° 0 mm 1 mps 761 mmHg 53%
    23:00 +19°C° 0 mm 1 mps 761 mmHg 52%

    Tomorrow, 27 June, Thursday

    Time Temperature Precipitation Wind Pressure Humidity
    00:00 +18°C° 0 mm 1 mps 761 mmHg 51%
    01:00 +17°C° 0 mm 2 mps 761 mmHg 52%
    02:00 +17°C° 0 mm 2 mps 760 mmHg 53%
    03:00 +17°C° 0 mm 2 mps 760 mmHg 54%
    04:00 +16°C° 0 mm 3 mps 760 mmHg 59%
    05:00 +16°C° 0 mm 3 mps 761 mmHg 63%
    06:00 +16°C° 0 mm 3 mps 761 mmHg 68%
    07:00 +18°C° 0 mm 4 mps 761 mmHg 61%
    08:00 +20°C° 0 mm 4 mps 761 mmHg 55%
    09:00 +22°C° 0 mm 4 mps 762 mmHg 49%
    10:00 +25°C° 0 mm 4 mps 761 mmHg 42%
    11:00 +28°C° 0 mm 3 mps 761 mmHg 35%
    12:00 +31°C° 0 mm 3 mps 760 mmHg 27%
    13:00 +31°C° 0 mm 3 mps 759 mmHg 27%
    14:00 +33°C° 0 mm 4 mps 759 mmHg 27%
    15:00 +33°C° 0 mm 4 mps 758 mmHg 27%
    16:00 +29°C° 0 mm 4 mps 758 mmHg 36%
    17:00 +27°C° 0 mm 3 mps 758 mmHg 46%
    18:00 +24°C° 0 mm 3 mps 758 mmHg 56%
    19:00 +23°C° 0 mm 2 mps 759 mmHg 59%
    20:00 +21°C° 0 mm 2 mps 759 mmHg 62%
    21:00 +20°C° 0 mm 2 mps 760 mmHg 64%
    22:00 +19°C° 0 mm 2 mps 760 mmHg 67%
    23:00 +19°C° 0 mm 2 mps 760 mmHg 70%

    Day after tomorrow, 28 June, Friday

    Time Temperature Precipitation Wind Pressure Humidity
    00:00 +18°C° 0 mm 2 mps 760 mmHg 72%
    01:00 +18°C° 0 mm 2 mps 760 mmHg 73%
    02:00 +18°C° 0 mm 2 mps 760 mmHg 74%
    03:00 +18°C° 0 mm 2 mps 760 mmHg 75%
    04:00 +18°C° 0 mm 2 mps 760 mmHg 75%
    05:00 +18°C° 0 mm 2 mps 760 mmHg 74%
    06:00 +18°C° 0 mm 2 mps 761 mmHg 74%
    07:00 +20°C° 0 mm 2 mps 761 mmHg 69%
    08:00 +22°C° 0 mm 3 mps 761 mmHg 63%
    09:00 +25°C° 0 mm 3 mps 762 mmHg 58%
    10:00 +28°C° 0 mm 3 mps 761 mmHg 51%
    11:00 +30°C° 0 mm 2 mps 761 mmHg 44%
    12:00 +32°C° 0 mm 2 mps 760 mmHg 36%
    13:00 +33°C° 0 mm 3 mps 759 mmHg 36%
    14:00 +33°C° 0 mm 3 mps 759 mmHg 35%
    15:00 +34°C° 0 mm 4 mps 758 mmHg 34%
    16:00 +30°C° 0 mm 3 mps 758 mmHg 44%
    17:00 +28°C° 0 mm 2 mps 758 mmHg 55%
    18:00 +25°C° 0 mm 2 mps 759 mmHg 65%
    19:00 +24°C° 0 mm 2 mps 759 mmHg 70%
    20:00 +22°C° 0 mm 3 mps 760 mmHg 76%
    21:00 +21°C° 0 mm 3 mps 760 mmHg 81%
    22:00 +21°C° 0 mm 3 mps 760 mmHg 82%
    23:00 +20°C° 0 mm 3 mps 760 mmHg 83%

    29 June, Saturday

    Time Temperature Precipitation Wind Pressure Humidity
    00:00 +20°C° 0 mm 3 mps 761 mmHg 84%
    01:00 +19°C° 0 mm 3 mps 760 mmHg 85%
    02:00 +19°C° 0 mm 2 mps 760 mmHg 85%
    03:00 +19°C° 0 mm 2 mps 760 mmHg 86%
    04:00 +19°C° 0 mm 2 mps 760 mmHg 84%
    05:00 +19°C° 0 mm 2 mps 760 mmHg 82%
    06:00 +19°C° 0 mm 2 mps 760 mmHg 80%
    07:00 +21°C° 0 mm 3 mps 760 mmHg 71%
    08:00 +24°C° 0 mm 3 mps 761 mmHg 62%
    09:00 +26°C° 0 mm 4 mps 761 mmHg 53%
    10:00 +28°C° 0 mm 4 mps 760 mmHg 46%
    11:00 +32°C° 0 mm 4 mps 760 mmHg 39%
    12:00 +34°C° 0 mm 5 mps 759 mmHg 32%
    13:00 +34°C° 0 mm 4 mps 759 mmHg 30%
    14:00 +35°C° 0 mm 4 mps 758 mmHg 29%
    15:00 +36°C° 0 mm 3 mps 757 mmHg 27%
    16:00 +33°C° 0 mm 3 mps 757 mmHg 34%
    17:00 +30°C° 0 mm 2 mps 758 mmHg 41%
    18:00 +27°C° 0 mm 2 mps 758 mmHg 49%
    19:00 +26°C° 0 mm 2 mps 758 mmHg 55%
    20:00 +24°C° 0 mm 1 mps 759 mmHg 60%
    21:00 +23°C° 0 mm 1 mps 760 mmHg 66%
    22:00 +23°C° 0 mm 2 mps 760 mmHg 64%
    23:00 +21°C° 0 mm 2 mps 760 mmHg 62%

    30 June, Sunday

    Time Temperature Precipitation Wind Pressure Humidity
    00:00 +21°C° 0 mm 2 mps 760 mmHg 60%
    01:00 +20°C° 0 mm 3 mps 760 mmHg 67%
    02:00 +20°C° 0 mm 3 mps 759 mmHg 68%
    03:00 +20°C° 0 mm 2 mps 759 mmHg 68%
    04:00 +19°C° 0 mm 3 mps 759 mmHg 71%
    05:00 +19°C° 0 mm 4 mps 759 mmHg 73%
    06:00 +19°C° 0 mm 4 mps 759 mmHg 75%
    07:00 +21°C° 0 mm 4 mps 760 mmHg 69%
    08:00 +23°C° 0 mm 5 mps 760 mmHg 62%
    09:00 +27°C° 0 mm 5 mps 760 mmHg 55%
    10:00 +29°C° 0 mm 5 mps 760 mmHg 48%
    11:00 +32°C° 0 mm 4 mps 759 mmHg 41%
    12:00 +34°C° 0 mm 4 mps 759 mmHg 34%
    13:00 +35°C° 0 mm 4 mps 758 mmHg 34%
    14:00 +36°C° 0 mm 4 mps 757 mmHg 33%
    15:00 +36°C° 0 mm 4 mps 757 mmHg 32%
    16:00 +34°C° 0 mm 3 mps 757 mmHg 40%
    17:00 +30°C° 0 mm 2 mps 757 mmHg 48%
    18:00 +28°C° 0 mm 2 mps 757 mmHg 56%
    19:00 +27°C° 0 mm 2 mps 758 mmHg 61%
    20:00 +26°C° 0 mm 2 mps 758 mmHg 66%
    21:00 +24°C° 0 mm 2 mps 759 mmHg 71%
    22:00 +24°C° 0 mm 2 mps 759 mmHg 71%
    23:00 +23°C° 0 mm 2 mps 759 mmHg 72%

    1 July, Monday

    Time Temperature Precipitation Wind Pressure Humidity
    00:00 +23°C° 0 mm 2 mps 759 mmHg 72%
    01:00 +21°C° 0 mm 3 mps 759 mmHg 71%
    02:00 +21°C° 0 mm 3 mps 759 mmHg 70%
    03:00 +20°C° 0 mm 4 mps 759 mmHg 69%
    04:00 +19°C° 0 mm 4 mps 759 mmHg 73%
    05:00 +19°C° 0 mm 4 mps 759 mmHg 78%
    06:00 +17°C° 0 mm 5 mps 760 mmHg 82%
    07:00 +20°C° 0 mm 5 mps 760 mmHg 72%
    08:00 +23°C° 0 mm 6 mps 760 mmHg 62%
    09:00 +26°C° 0 mm 6 mps 761 mmHg 51%
    10:00 +28°C° 0 mm 5 mps 760 mmHg 44%
    11:00 +30°C° 0 mm 5 mps 759 mmHg 37%
    12:00 +33°C° 0 mm 4 mps 759 mmHg 30%
    13:00 +33°C° 0 mm 4 mps 758 mmHg 28%
    14:00 +34°C° 0 mm 3 mps 757 mmHg 26%
    15:00 +35°C° 0 mm 3 mps 756 mmHg 24%
    16:00 +32°C° 0 mm 2 mps 757 mmHg 32%
    17:00 +29°C° 0 mm 2 mps 757 mmHg 39%
    18:00 +26°C° 0 mm 2 mps 757 mmHg 47%
    19:00 +25°C° 0 mm 2 mps 758 mmHg 51%
    20:00 +24°C° 0 mm 1 mps 758 mmHg 56%
    21:00 +22°C° 0 mm 1 mps 759 mmHg 61%
    22:00 +21°C° 0 mm 2 mps 759 mmHg 60%
    23:00 +20°C° 0 mm 2 mps 759 mmHg 59%
    Show more